Wind_Speed
8 8 8 7 6 5 4 3 2 2 3 4 5 7 8 9 10 12 12 13 14 14 14 13 13 13 13 13 14 14 14 15 15 15 16 16 16 16 16 17 17 17 17 17 17 17 17 17 18
6 7 6 6 6 4 4 3 3 3 2 2 3 5 7 8 9 10 11 12 12 12 12 12 13 13 13 13 14 14 15 15 15 16 16 16 16 16 17 17 17 17 17 17 17 17 17 17 17
5 5 5 4 4 3 2 2 2 2 2 2 3 4 6 7 9 9 10 11 12 12 12 12 13 13 14 14 14 15 15 15 16 16 16 17 17 17 17 17 17 17 17 17 17 17 17 17 17
3 3 3 3 2 2 1 1 1 1 2 3 4 5 6 8 9 10 11 12 12 13 13 14 14 15 15 15 15 16 16 16 17 17 17 17 17 17 17 18 18 18 17 17 17 17 17 17 17
1 1 1 1 1 1 0 1 1 2 3 4 6 7 7 9 10 12 13 13 14 14 15 15 16 16 16 16 17 17 17 17 18 18 18 18 18 18 18 18 18 19 19 18 18 18 18 18 18
2 2 2 2 2 2 2 2 3 3 4 5 7 8 8 10 12 13 14 15 16 16 16 17 17 18 18 18 18 19 19 19 19 19 19 19 19 19 19 19 19 19 19 19 19 18 18 18 18
4 4 4 4 4 4 4 4 4 4 5 7 8 10 10 11 12 14 15 16 17 18 18 19 19 20 20 20 20 20 20 20 20 20 20 20 20 20 20 20 20 20 20 20 19 19 19 19 19
7 7 7 6 6 6 6 6 6 7 7 8 9 11 12 12 13 14 15 16 17 18 19 20 21 22 22 22 22 22 22 22 22 22 22 22 22 22 22 21 21 21 21 21 21 21 21 20 21
10 10 9 9 9 8 9 9 8 9 10 10 10 11 13 14 15 15 16 17 17 18 20 21 22 22 23 23 23 23 24 24 23 23 23 23 23 24 23 23 23 23 23 23 23 23 23 23 23
12 12 12 12 11 11 11 11 11 11 12 12 12 13 15 16 17 17 17 18 18 19 20 21 22 23 23 24 24 25 25 25 25 25 25 25 25 25 26 25 26 25 26 26 26 26 26 26 26
15 15 14 14 14 14 14 15 14 14 15 14 15 15 16 18 18 18 19 19 19 20 20 21 22 23 24 24 25 25 26 26 27 27 27 27 27 28 28 28 28 28 28 28 29 29 29 29 30
17 17 17 16 16 16 17 17 17 16 16 17 18 18 19 19 19 19 19 19 20 20 20 21 22 23 24 25 26 26 27 27 28 28 29 29 30 30 30 30 31 31 31 32 32 32 33 33 33
18 18 18 17 17 17 18 18 18 18 18 18 20 20 21 21 20 20 20 20 20 20 21 21 22 23 24 25 26 27 27 28 28 29 30 30 31 32 32 33 33 34 34 35 35 36 36 37 38
19 19 19 18 18 18 19 19 19 19 20 20 20 21 21 20 20 20 20 20 20 21 21 21 22 23 24 25 25 26 27 28 28 29 30 31 32 33 33 34 35 36 37 37 38 38 39 40 41
20 20 20 19 19 19 19 20 19 19 20 20 20 20 20 19 19 19 19 20 20 20 21 21 22 22 23 24 25 26 27 27 28 29 30 31 32 33 34 34 35 37 37 38 39 40 41 42 43
20 21 21 20 19 19 20 20 19 19 20 20 20 19 18 18 18 18 18 19 19 20 20 21 22 22 23 24 24 25 26 27 28 29 30 31 32 33 34 34 36 37 37 38 39 40 41 43 44
21 21 21 20 19 20 20 21 20 19 19 19 18 18 17 17 17 18 18 19 19 20 21 22 23 24 24 25 26 27 28 28 29 30 30 31 32 33 33 34 35 36 37 37 39 40 41 42 44
21 21 21 21 19 20 20 20 19 18 18 18 18 17 17 17 18 18 19 20 21 22 23 24 25 26 27 27 28 28 29 30 30 30 31 32 32 33 33 34 35 36 36 37 39 40 41 43 45
21 21 21 21 19 19 19 19 19 18 18 17 17 18 18 18 19 19 20 21 23 24 25 26 27 28 28 28 29 29 30 30 31 31 32 32 32 33 33 34 35 36 37 38 40 41 43 44 46
21 21 21 20 19 18 19 19 19 19 18 18 18 18 19 19 20 22 23 24 25 26 26 27 28 28 28 29 29 29 29 29 30 30 31 31 31 32 33 34 35 37 38 40 41 43 44 45 47
22 22 21 20 19 19 19 19 19 19 19 19 20 20 21 21 22 23 24 25 26 26 27 28 28 28 28 28 27 27 27 27 28 28 29 30 32 33 34 35 37 38 40 41 43 45 47 48 50
23 22 21 21 20 19 19 20 20 20 20 21 21 22 22 23 24 25 25 26 27 28 28 29 29 28 27 26 25 25 25 26 27 29 30 31 32 34 36 37 39 40 42 44 46 48 50 52 54
23 22 22 21 21 20 20 21 20 20 21 22 22 23 24 24 25 26 26 27 28 29 29 29 29 27 26 25 25 26 27 28 29 31 32 33 34 36 38 40 42 44 46 48 50 52 55 57 59
23 23 23 22 22 21 20 22 21 20 22 23 24 24 25 25 26 26 27 28 29 30 30 29 28 27 26 26 27 28 29 30 32 33 35 36 38 40 42 44 46 48 51 53 55 57 60 62 64
23 23 24 23 23 22 22 22 22 21 23 24 25 25 25 26 27 27 28 29 30 30 29 28 28 28 28 29 30 31 32 34 35 36 38 40 42 44 46 49 51 53 56 58 60 62 64 67 69
24 24 24 25 24 23 23 23 22 22 23 25 26 26 26 27 28 29 30 31 31 30 30 29 29 30 31 32 33 34 35 37 38 40 42 43 46 48 50 53 55 58 60 62 65 67 69 71 73
25 24 25 26 26 25 24 23 23 23 24 26 27 27 28 29 30 31 32 32 32 32 31 31 31 32 33 35 36 37 39 40 42 44 46 48 50 52 55 57 59 62 64 67 69 71 73 75 77
25 25 25 27 27 27 25 23 23 24 25 27 28 29 30 30 32 33 33 34 34 33 33 33 34 35 36 37 39 40 42 44 46 48 50 52 55 57 59 61 64 66 68 71 73 75 77 79 81
26 26 26 28 28 28 28 25 24 26 27 29 30 31 31 32 34 35 35 36 35 35 35 36 37 38 39 40 42 44 46 47 50 52 54 56 59 61 64 66 68 70 72 75 77 79 81 83 85
27 27 28 29 30 30 30 28 26 28 29 31 32 33 33 34 35 37 37 37 37 37 37 38 39 40 42 44 45 47 49 51 53 56 58 61 63 66 68 70 72 74 76 78 81 83 85 86 88
Wind_Direction
87 92 92 90 95 104 117 134 159 189 218 235 242 245 246 248 248 250 250 247 248 248 248 249 250 252 254 257 259 261 262 263 264 265 265 265 264 262 261 260 259 258 257 256 256 256 255 255 255
85 88 89 90 91 98 110 129 149 163 182 219 237 243 246 249 251 249 247 246 246 246 246 248 252 254 256 259 261 264 266 267 267 267 267 266 265 265 264 262 260 259 259 258 256 256 256 256 256
86 82 85 86 88 93 108 126 155 167 187 218 237 246 249 249 251 250 250 248 248 248 250 252 255 258 260 262 264 266 267 268 268 268 268 268 267 267 266 263 261 261 260 259 258 257 257 257 257
79 80 83 83 84 88 102 116 185 210 227 242 252 253 253 253 254 256 256 255 255 255 256 259 261 263 265 266 267 268 268 269 269 270 269 269 269 268 266 265 264 263 262 262 261 260 259 259 258
60 58 62 39 12 337 311 295 273 260 262 260 263 263 259 258 258 259 260 260 260 260 261 262 264 265 267 268 268 269 269 270 270 270 270 270 269 268 266 266 266 265 265 264 263 262 261 260 260
273 283 281 292 297 298 296 291 284 276 269 266 268 270 267 263 261 261 261 261 262 263 264 264 265 266 267 268 269 269 269 269 270 269 269 270 270 269 267 266 265 265 264 263 263 263 262 261 261
270 279 281 287 290 289 290 288 284 278 270 268 270 273 272 267 264 262 262 262 263 263 263 264 265 266 266 267 267 267 268 268 268 268 268 269 269 268 267 266 264 263 262 261 262 263 262 261 261
267 272 275 280 285 285 283 281 279 275 270 269 269 271 273 273 269 266 265 265 265 265 264 264 264 265 266 267 267 267 268 267 267 268 268 268 268 268 267 266 264 264 262 262 262 263 263 262 262
267 269 273 276 279 280 278 276 275 274 272 269 270 270 271 273 274 273 271 270 268 267 267 267 267 267 268 269 268 268 268 268 268 268 268 268 268 267 267 266 265 265 264 263 263 264 263 263 263
267 269 272 273 274 276 276 275 274 273 272 273 271 268 271 273 276 277 277 275 274 271 270 269 269 269 270 270 270 269 269 268 268 267 267 267 268 267 267 266 265 265 264 264 264 264 264 264 265
268 270 272 273 273 273 275 276 276 274 274 275 272 269 269 272 275 277 278 278 277 276 274 273 272 272 271 271 271 270 270 269 269 268 268 268 268 267 267 267 266 266 265 265 265 265 265 266 266
269 271 272 274 274 273 273 275 276 276 276 274 273 273 273 274 277 278 279 279 279 278 277 276 275 274 274 273 272 272 271 271 270 270 270 269 269 269 268 268 268 267 267 266 266 266 266 267 267
269 271 273 275 275 273 273 274 277 278 275 272 272 274 276 277 279 280 280 280 280 280 279 278 277 276 276 275 275 274 274 273 273 272 272 271 271 271 270 270 269 269 268 268 268 268 268 269 269
270 273 274 275 275 275 275 275 276 277 275 274 273 275 277 278 278 279 279 281 281 281 281 281 281 280 279 278 278 277 276 275 274 274 273 273 273 272 272 272 272 271 271 271 271 271 271 271 271
271 274 275 276 276 277 276 276 276 277 276 276 276 277 277 277 278 278 280 281 282 283 284 284 284 284 283 282 281 280 279 278 277 276 275 275 274 274 274 274 273 273 273 273 273 273 272 272 272
272 274 276 277 277 276 276 276 277 276 275 275 276 276 277 277 278 281 282 283 284 286 287 287 287 287 286 286 285 283 282 280 279 279 278 277 277 277 276 276 276 275 275 275 274 273 273 273 273
271 275 277 277 276 275 276 276 276 274 274 274 275 276 277 278 281 284 286 287 288 289 289 290 289 289 289 288 287 286 285 284 283 282 281 280 280 279 279 278 278 278 278 277 277 276 275 275 274
270 274 276 277 276 275 275 275 275 273 273 274 275 278 280 283 285 288 289 290 292 292 291 291 291 291 290 289 288 286 286 285 284 284 283 282 281 281 280 280 279 279 279 279 278 277 277 276 276
269 272 274 275 276 275 274 273 274 273 273 274 277 280 284 286 288 290 292 293 293 292 292 292 291 291 290 289 288 287 286 285 285 284 283 283 283 283 283 282 282 282 282 282 281 280 280 279 279
268 270 271 273 273 273 272 271 272 272 274 277 280 282 285 287 289 292 293 293 293 292 292 292 292 292 292 291 289 287 286 285 285 285 284 284 284 284 284 284 284 285 285 284 284 283 282 282 281
267 268 268 270 270 269 269 269 270 272 275 277 280 283 286 288 290 292 293 293 293 294 294 294 294 294 293 292 290 289 287 287 287 286 286 286 286 286 287 287 288 287 287 287 286 286 285 285 284
265 265 266 268 268 267 268 267 269 272 275 278 280 283 286 288 291 293 293 293 293 294 295 295 295 294 293 292 290 289 288 289 289 289 289 289 288 289 289 290 290 290 290 289 289 289 289 288 288
262 263 264 266 266 267 267 267 267 271 274 277 279 283 285 288 291 292 292 292 293 294 294 294 294 292 291 290 289 289 289 289 290 291 291 291 291 291 292 292 292 292 292 292 291 291 291 290 289
260 261 263 264 266 266 266 268 270 271 274 276 279 282 285 288 291 291 291 292 292 293 293 293 291 289 288 288 288 288 288 289 290 290 291 291 292 293 294 294 294 294 294 293 293 292 292 291 290
257 260 263 265 266 267 267 268 271 273 273 276 279 283 286 289 290 291 291 292 292 291 291 290 287 286 286 287 287 287 288 290 290 291 292 293 294 295 295 296 296 295 295 294 293 293 293 292 291
256 259 264 268 269 268 268 269 272 273 275 277 280 283 286 288 290 290 292 292 291 290 290 288 286 285 285 286 286 288 289 290 291 292 293 294 295 295 296 296 296 296 295 294 294 293 293 292 291
258 260 264 268 269 270 270 271 273 275 277 279 281 284 286 288 290 291 291 291 290 289 288 287 285 286 286 286 287 288 290 291 292 293 293 294 295 296 297 297 297 297 296 295 295 295 294 293 292
258 261 263 267 270 272 272 273 275 275 277 279 282 284 286 289 291 292 291 290 289 288 287 286 286 287 288 288 288 290 291 292 293 294 295 296 297 298 298 299 298 298 298 297 297 296 295 295 294
258 261 263 266 270 274 275 275 277 278 279 279 281 283 286 289 291 292 291 289 288 287 286 286 286 287 289 289 290 292 293 294 295 296 297 298 299 300 300 300 300 300 299 299 299 298 297 297 296
259 262 265 268 271 274 277 279 280 280 280 280 282 284 287 290 291 292 290 289 287 287 287 286 287 289 290 291 293 294 295 297 297 298 299 300 301 302 302 302 302 302 301 301 300 300 299 299 299
Height
5876 5876 5876 5876 5877 5877 5876 5876 5876 5876 5876 5876 5876 5877 5877 5878 5879 5881 5879 5878 5878 5878 5878 5878 5879 5879 5879 5879 5879 5879 5879 5879 5878 5878 5878 5877 5877 5877 5877 5876 5876 5875 5875 5875 5874 5874 5874 5874 5874
5877 5877 5877 5877 5877 5876 5877 5876 5875 5875 5875 5875 5876 5876 5876 5876 5876 5877 5876 5876 5876 5876 5877 5877 5877 5877 5877 5877 5877 5877 5877 5876 5876 5876 5875 5875 5875 5874 5874 5874 5873 5873 5872 5872 5872 5872 5871 5871 5871
5877 5877 5878 5877 5877 5877 5877 5876 5875 5875 5875 5875 5875 5875 5876 5876 5875 5875 5875 5875 5875 5875 5875 5875 5875 5875 5875 5875 5875 5875 5874 5874 5874 5873 5873 5872 5872 5871 5871 5871 5871 5870 5870 5869 5869 5869 5869 5868 5868
5878 5878 5878 5878 5877 5876 5876 5876 5875 5875 5874 5874 5874 5875 5874 5875 5874 5874 5874 5874 5874 5873 5873 5873 5873 5873 5873 5872 5872 5872 5872 5871 5871 5870 5870 5870 5869 5869 5868 5868 5868 5867 5867 5866 5866 5866 5866 5865 5865
5878 5878 5878 5877 5876 5876 5875 5875 5874 5874 5874 5874 5874 5873 5873 5873 5873 5872 5872 5872 5872 5871 5871 5871 5871 5870 5870 5870 5869 5869 5869 5868 5868 5867 5867 5867 5866 5866 5865 5865 5864 5864 5864 5863 5863 5863 5863 5862 5862
5877 5877 5877 5876 5876 5875 5875 5874 5873 5873 5873 5873 5872 5872 5872 5872 5871 5871 5870 5870 5870 5869 5869 5868 5868 5867 5867 5866 5866 5866 5865 5865 5864 5864 5864 5863 5863 5862 5862 5862 5861 5861 5860 5860 5860 5859 5859 5859 5859
5877 5876 5876 5875 5875 5874 5874 5873 5872 5872 5871 5871 5870 5870 5870 5869 5869 5868 5868 5867 5867 5866 5866 5865 5865 5864 5863 5863 5862 5862 5861 5861 5861 5860 5860 5860 5859 5859 5858 5858 5858 5857 5857 5857 5856 5856 5856 5856 5855
5874 5875 5874 5874 5873 5873 5872 5871 5871 5870 5870 5869 5868 5868 5867 5867 5866 5865 5865 5865 5864 5863 5863 5862 5861 5860 5860 5859 5859 5858 5858 5857 5857 5856 5856 5856 5855 5855 5854 5854 5854 5853 5853 5853 5853 5852 5852 5852 5852
5872 5873 5872 5871 5871 5871 5870 5869 5869 5868 5867 5866 5866 5865 5865 5864 5863 5863 5862 5862 5861 5860 5859 5858 5857 5857 5856 5855 5855 5854 5853 5853 5852 5852 5852 5851 5851 5851 5850 5850 5850 5849 5849 5849 5848 5848 5848 5848 5847
5869 5869 5869 5869 5869 5868 5867 5867 5866 5866 5864 5864 5863 5862 5861 5860 5860 5859 5859 5858 5858 5857 5856 5855 5854 5853 5852 5851 5850 5850 5849 5848 5848 5847 5847 5847 5846 5846 5846 5845 5845 5844 5844 5844 5843 5843 5843 5843 5843
5865 5866 5865 5865 5865 5864 5864 5863 5863 5862 5861 5861 5860 5859 5858 5857 5857 5856 5855 5854 5854 5853 5852 5851 5850 5849 5848 5847 5846 5845 5844 5843 5843 5842 5842 5841 5841 5841 5840 5840 5840 5839 5839 5838 5838 5838 5837 5837 5837
5862 5861 5861 5861 5861 5861 5860 5859 5859 5858 5858 5857 5856 5855 5854 5853 5853 5852 5851 5850 5850 5849 5848 5847 5846 5845 5844 5842 5841 5840 5839 5838 5838 5837 5836 5836 5835 5835 5834 5834 5834 5833 5833 5832 5832 5831 5831 5831 5830
5858 5857 5857 5857 5857 5857 5856 5855 5855 5854 5854 5852 5851 5851 5850 5849 5848 5848 5847 5846 5845 5844 5843 5842 5841 5840 5839 5838 5836 5835 5834 5833 5832 5831 5830 5830 5829 5829 5828 5828 5827 5826 5826 5825 5825 5825 5824 5823 5823
5854 5853 5853 5853 5853 5852 5851 5851 5850 5850 5849 5848 5847 5846 5845 5845 5844 5843 5843 5842 5841 5840 5839 5838 5837 5835 5834 5833 5832 5830 5829 5828 5827 5825 5824 5824 5823 5822 5821 5821 5820 5819 5818 5818 5817 5817 5816 5815 5814
5849 5849 5849 5848 5848 5847 5847 5846 5846 5845 5844 5843 5842 5842 5841 5840 5840 5839 5838 5837 5836 5835 5834 5833 5832 5831 5829 5828 5826 5825 5823 5822 5821 5819 5818 5817 5816 5815 5814 5813 5812 5811 5810 5809 5809 5808 5807 5806 5804
5845 5844 5844 5844 5843 5842 5843 5842 5841 5840 5839 5838 5838 5837 5837 5836 5835 5834 5834 5833 5831 5830 5829 5828 5827 5826 5824 5823 5821 5819 5818 5816 5815 5813 5812 5810 5809 5808 5807 5805 5804 5803 5802 5801 5799 5798 5797 5795 5794
5840 5839 5839 5839 5838 5837 5837 5836 5836 5835 5834 5834 5833 5833 5832 5832 5831 5830 5829 5828 5827 5826 5824 5823 5822 5820 5819 5817 5815 5813 5812 5810 5808 5807 5805 5804 5802 5800 5799 5798 5796 5794 5793 5791 5790 5788 5787 5785 5783
5835 5834 5833 5833 5833 5833 5832 5831 5830 5830 5830 5829 5828 5828 5828 5827 5826 5826 5825 5823 5822 5821 5819 5817 5816 5814 5812 5811 5809 5807 5805 5803 5801 5800 5798 5796 5795 5793 5791 5789 5787 5786 5784 5782 5780 5778 5776 5775 5772
5830 5829 5829 5828 5828 5828 5827 5826 5826 5825 5825 5824 5824 5823 5823 5822 5822 5821 5820 5819 5817 5815 5813 5812 5810 5808 5806 5804 5802 5800 5798 5796 5794 5792 5790 5789 5787 5785 5783 5781 5779 5777 5775 5773 5771 5768 5766 5764 5761
5824 5824 5824 5824 5823 5823 5822 5821 5821 5820 5820 5820 5819 5819 5818 5818 5817 5816 5815 5813 5811 5809 5807 5805 5803 5801 5799 5797 5795 5793 5791 5789 5787 5785 5783 5781 5779 5777 5775 5773 5771 5768 5766 5763 5760 5757 5755 5753 5749
5819 5819 5819 5819 5818 5818 5818 5817 5816 5816 5815 5815 5814 5814 5813 5812 5812 5810 5809 5807 5805 5803 5801 5799 5797 5795 5792 5790 5788 5786 5783 5781 5780 5778 5775 5773 5771 5769 5766 5764 5761 5759 5756 5753 5750 5746 5744 5741 5738
5814 5814 5814 5813 5813 5814 5814 5813 5812 5811 5810 5810 5809 5808 5808 5807 5806 5804 5803 5801 5799 5797 5794 5792 5790 5788 5785 5783 5781 5779 5777 5775 5773 5770 5768 5765 5763 5760 5758 5755 5752 5749 5746 5743 5739 5735 5731 5728 5724
5808 5808 5809 5808 5808 5809 5809 5808 5809 5807 5806 5805 5804 5803 5802 5801 5800 5798 5796 5794 5792 5790 5788 5786 5783 5781 5779 5777 5775 5773 5770 5768 5765 5763 5760 5757 5755 5752 5749 5745 5742 5739 5735 5731 5727 5723 5718 5714 5709
5802 5803 5803 5803 5803 5804 5804 5803 5803 5802 5801 5799 5798 5797 5796 5795 5794 5792 5790 5788 5786 5784 5781 5779 5777 5775 5773 5771 5768 5766 5763 5761 5758 5755 5752 5749 5746 5742 5739 5735 5731 5727 5723 5718 5714 5709 5704 5699 5694
5796 5797 5798 5798 5798 5799 5798 5798 5798 5797 5795 5794 5793 5791 5790 5789 5787 5785 5783 5781 5779 5777 5774 5772 5770 5768 5766 5764 5761 5759 5756 5753 5750 5747 5743 5740 5736 5732 5728 5724 5719 5714 5709 5704 5699 5694 5688 5682 5676
5790 5791 5793 5792 5792 5792 5792 5792 5793 5791 5789 5788 5787 5785 5784 5782 5781 5778 5776 5774 5772 5769 5767 5765 5763 5761 5758 5756 5753 5751 5748 5744 5741 5737 5734 5730 5726 5721 5717 5712 5706 5701 5695 5689 5683 5678 5671 5664 5658
5784 5785 5785 5785 5785 5785 5786 5787 5786 5785 5783 5781 5780 5779 5777 5775 5773 5771 5769 5766 5764 5762 5759 5757 5755 5753 5750 5747 5744 5741 5738 5735 5731 5727 5723 5719 5714 5709 5704 5698 5692 5686 5680 5673 5666 5660 5652 5645 5637
5777 5778 5779 5778 5778 5778 5780 5780 5780 5778 5777 5775 5773 5771 5770 5768 5766 5763 5761 5758 5756 5754 5751 5749 5747 5744 5741 5738 5735 5731 5727 5724 5720 5715 5710 5705 5700 5695 5689 5683 5676 5669 5662 5654 5647 5640 5632 5623 5615
5771 5772 5771 5771 5771 5772 5772 5776 5773 5771 5769 5768 5766 5764 5762 5760 5758 5755 5752 5750 5747 5745 5743 5740 5737 5734 5731 5728 5724 5720 5716 5712 5707 5702 5697 5691 5685 5679 5672 5665 5658 5651 5643 5634 5626 5618 5609 5600 5591
5763 5764 5765 5765 5764 5764 5764 5769 5765 5763 5761 5759 5758 5756 5754 5752 5749 5746 5743 5741 5738 5735 5733 5730 5727 5724 5720 5717 5712 5708 5704 5699 5693 5688 5682 5676 5669 5662 5655 5647 5639 5631 5622 5613 5604 5595 5585 5575 5566